Location: Heiligenberg
(48.5381°N, 7.3897°E)
Time: 21:14:03
(UTC+00:00)

CRYOSAT 2 - Pass Details

Date: 26 May 2022
Orbit: 716 x 723 km, 92.0° (Epoch: 04 July)

Event Time Altitude Azimuth Distance (km) Brightness Sun altitude
Exits shadow 01:36:44 16° 173° (S) 1,850 6.0 -14.6°
Maximum altitude 01:40:44 89° 83° (E) 729 4.4 -14.3°
Drops below altitude 10° 01:45:40 10° 356° (N) 2,223 7.7 -13.8°
Sets 01:47:58 0° 356° (N) 3,150 8.6 -13.6°
